Wind_Speed
20 20 21 21 22 21 22 22 20 18 17 17 16 15 14 12 11 9 9 8 9 9 8 8 8 7 7 7 6 6 6 5 5 5 5 4 3 3 3 3 4 5 5 5 6 7 7 7 6
20 21 21 21 22 22 22 22 20 19 18 17 15 14 13 12 11 10 9 8 9 9 9 8 8 7 7 7 6 5 5 5 5 4 4 4 4 3 3 3 3 4 5 6 6 6 6 6 6
20 21 22 22 21 23 22 22 22 20 19 18 16 14 12 11 11 10 9 9 9 9 9 8 8 7 7 7 6 5 5 4 4 4 4 4 4 4 4 4 5 5 5 5 6 6 6 6 6
19 22 23 22 22 23 23 23 23 21 20 19 18 14 13 12 11 10 10 10 10 9 9 8 8 7 7 6 6 5 5 5 4 4 4 4 4 4 4 5 6 6 5 5 6 5 6 6 6
19 22 22 21 22 23 22 23 22 21 19 19 19 16 15 14 12 10 10 11 10 9 9 8 7 7 7 6 6 5 5 4 4 4 4 4 4 5 5 5 6 6 5 5 5 5 6 6 7
18 21 21 21 22 22 22 22 21 20 20 20 18 17 16 15 13 12 11 11 10 9 9 8 8 7 7 6 6 5 4 4 4 4 4 4 4 4 5 5 5 5 5 6 5 6 6 6 7
16 18 20 20 21 21 22 22 20 19 21 20 20 18 18 16 15 13 12 11 10 9 8 8 7 7 6 6 5 5 5 4 4 4 4 4 4 4 4 5 5 5 5 5 6 6 6 6 7
16 16 17 19 19 21 21 20 20 21 21 20 20 20 19 17 16 15 13 12 11 10 9 8 7 6 6 5 5 4 4 4 4 4 4 3 4 4 4 4 4 5 5 6 6 7 7 7 7
14 14 16 17 17 18 18 18 20 21 21 21 21 21 19 18 17 16 13 12 11 10 9 8 7 6 5 4 4 4 4 4 4 3 3 3 3 3 3 3 4 5 5 6 6 6 7 8 8
12 12 15 16 16 16 17 18 20 22 22 22 21 20 19 18 17 16 14 12 12 11 9 8 8 6 5 4 4 3 4 3 3 3 3 3 2 3 2 3 4 5 5 6 6 7 7 8 8
11 12 14 15 15 15 17 19 20 21 21 21 21 20 20 19 18 16 15 13 12 11 10 9 8 7 5 4 4 3 3 3 3 2 2 2 2 3 3 3 4 5 5 5 6 6 6 7 7
10 11 12 14 16 17 19 19 20 20 20 21 21 20 20 20 19 17 16 14 13 12 11 10 9 7 6 4 3 3 2 2 2 2 2 2 3 3 3 3 4 4 5 5 5 6 6 6 5
9 11 12 13 15 18 18 18 20 19 19 20 20 20 20 19 19 18 17 15 14 13 12 11 9 7 6 4 3 3 2 2 2 2 2 2 2 2 3 3 3 4 5 5 5 5 5 5 4
8 9 11 12 14 17 17 18 19 20 20 19 19 20 20 19 19 19 18 16 16 14 13 12 10 8 6 4 3 2 2 2 2 2 1 1 2 2 2 3 4 4 5 5 4 4 4 4 4
7 8 9 10 12 15 16 18 19 20 20 19 18 19 19 19 19 19 18 17 15 14 14 13 12 9 7 5 3 2 1 1 1 1 1 1 2 2 2 3 4 4 4 4 4 4 4 3 3
6 6 7 8 10 14 15 16 17 19 21 20 19 19 19 20 20 19 18 17 16 14 14 13 12 10 8 6 4 2 1 1 1 1 1 1 2 2 3 3 4 4 5 5 4 3 3 3 3
6 4 4 5 9 12 14 15 15 17 19 20 20 20 20 20 20 19 19 17 17 15 14 14 13 11 9 7 4 2 1 0 1 1 1 1 2 2 4 4 4 5 5 4 4 4 4 4 3
6 3 2 2 6 9 13 13 14 15 17 19 20 19 20 20 20 20 19 18 17 17 15 14 13 11 10 8 6 3 1 0 1 1 1 1 2 2 4 4 5 5 5 5 5 5 5 5 4
6 3 1 0 4 8 11 11 12 14 15 17 18 18 19 20 20 19 18 18 17 17 16 14 14 12 11 9 6 5 3 1 1 2 2 2 2 2 3 5 5 5 5 5 5 6 6 6 6
8 5 3 2 4 8 10 10 10 13 13 14 16 17 18 19 19 19 18 17 17 17 16 15 14 13 11 10 8 5 4 2 2 3 3 3 3 3 3 5 6 6 6 6 7 7 7 7 7
9 7 6 5 5 8 10 10 10 13 14 13 15 17 17 18 18 18 17 16 16 16 16 15 13 12 11 10 8 7 5 4 2 2 3 3 4 4 4 5 6 7 7 8 8 8 8 9 9
10 8 8 7 7 8 8 9 10 12 12 13 14 15 16 17 17 17 17 16 15 16 15 15 13 13 12 10 9 7 6 5 3 3 4 4 4 5 5 5 6 7 8 8 9 10 10 10 11
11 10 10 9 8 8 8 9 9 11 12 13 15 15 15 17 16 16 16 16 15 15 15 14 13 13 12 11 10 8 7 6 4 4 4 4 4 5 6 6 7 7 8 9 9 10 11 11 12
13 13 12 11 10 9 9 10 10 11 12 13 14 15 15 16 15 14 15 15 15 15 15 14 13 13 12 11 10 8 7 6 5 4 4 4 5 6 7 7 8 9 9 10 11 11 11 11 12
15 15 14 12 10 8 9 11 11 10 11 11 13 14 14 15 14 14 14 16 16 15 15 14 14 13 13 12 10 9 8 6 6 5 5 5 6 8 8 8 9 10 11 11 11 11 12 12 13
16 16 15 13 10 9 10 11 10 9 10 10 11 12 13 14 14 15 15 15 15 15 15 15 15 14 13 13 12 10 8 7 6 6 6 6 7 8 9 9 10 10 11 11 12 12 12 13 13
17 16 15 14 12 11 11 11 10 9 9 10 10 11 12 12 14 15 14 15 15 15 15 16 15 14 14 13 12 11 9 7 7 7 7 6 7 7 8 10 10 10 11 11 12 13 13 14 14
17 17 17 16 14 13 12 11 10 9 9 11 11 11 11 12 13 14 14 15 15 15 15 16 16 15 14 13 13 12 11 10 8 8 8 7 8 8 8 9 9 10 11 11 12 13 14 14 14
18 19 20 19 17 16 14 13 11 9 10 11 11 10 10 12 13 14 14 15 15 15 16 16 15 15 15 14 14 14 13 12 10 9 9 9 9 9 9 10 10 10 10 11 12 12 14 14 15
20 20 20 19 18 17 16 14 13 11 11 11 11 11 11 12 13 13 14 15 15 15 16 16 16 15 15 15 15 14 13 12 12 11 10 11 12 11 11 11 11 11 11 12 12 13 14 15 15
Wind_Direction
64 59 54 49 45 42 44 45 44 45 42 40 37 37 39 40 44 47 50 56 61 64 67 69 70 69 67 64 61 61 59 57 51 50 51 57 68 83 91 101 115 116 114 115 119 126 129 131 128
57 54 51 48 43 42 44 44 44 42 41 40 35 35 38 40 44 45 47 50 56 60 63 65 66 66 66 63 59 57 56 56 55 52 51 56 70 84 90 100 113 121 121 117 119 121 123 126 128
60 53 49 46 42 42 44 43 42 37 38 40 36 35 39 43 44 43 45 48 52 56 58 61 64 65 65 63 60 58 57 55 52 55 57 61 74 81 92 98 112 124 126 121 117 116 119 124 127
58 48 44 41 42 44 43 39 37 35 35 40 38 36 40 46 47 43 44 47 49 52 55 58 61 62 64 63 62 61 57 50 53 64 63 65 69 81 92 100 111 114 117 118 115 112 114 123 127
50 45 40 36 41 43 44 39 35 32 33 37 39 38 39 46 49 47 48 50 51 52 54 55 59 62 62 61 63 65 59 54 59 69 69 68 70 77 86 106 117 112 113 116 117 114 114 118 120
49 44 36 33 38 41 42 37 33 32 33 36 40 38 39 45 49 48 49 53 55 55 54 53 54 57 59 60 63 65 60 61 66 71 74 74 81 85 92 107 112 107 106 106 106 109 112 116 119
50 42 36 34 36 40 38 34 32 32 31 34 38 37 38 43 44 46 48 51 54 54 51 51 52 55 57 60 63 67 66 67 68 76 80 80 83 93 106 101 106 106 105 101 103 112 112 116 119
54 48 38 35 36 39 39 34 31 31 30 32 34 35 35 39 41 42 45 48 47 48 48 49 49 53 56 58 62 67 68 72 74 79 84 82 85 95 106 106 110 108 105 101 104 109 110 118 119
55 49 38 36 33 35 38 36 33 31 30 32 32 32 33 35 36 39 43 44 44 43 41 41 39 42 53 62 69 71 68 73 76 80 78 77 83 97 105 112 117 119 113 107 108 111 110 117 118
54 43 37 34 34 35 36 36 36 32 30 32 33 32 32 32 32 37 42 42 42 40 37 34 34 33 49 58 67 73 68 69 72 77 82 77 82 99 109 121 117 119 119 115 113 112 113 115 116
61 46 41 39 36 36 35 35 35 34 32 32 32 31 31 30 31 35 37 37 38 38 37 35 30 32 50 53 59 62 64 61 64 70 79 83 92 104 112 135 128 123 126 122 120 118 115 115 117
70 57 46 39 33 32 34 36 32 33 32 32 31 29 29 29 30 32 35 36 36 34 33 33 30 37 46 45 56 60 63 60 58 73 85 99 113 119 122 150 149 136 129 127 122 123 120 117 120
74 62 51 39 29 26 28 31 30 35 33 32 31 28 27 27 29 31 34 34 33 31 30 30 35 39 44 46 51 62 58 56 81 85 107 122 127 127 131 140 149 145 138 136 130 126 124 121 125
88 73 58 40 31 27 23 27 33 31 33 32 30 28 27 28 29 30 31 30 29 28 27 28 29 39 43 47 56 59 59 61 78 97 117 146 152 147 144 151 152 157 156 154 149 140 136 138 133
92 78 63 44 29 25 21 25 28 30 30 29 28 28 28 29 29 27 27 26 24 25 26 24 27 31 37 48 54 62 94 105 103 98 97 145 159 172 181 159 162 167 168 168 164 155 151 148 140
109 87 64 48 29 18 13 17 22 27 25 25 27 29 30 29 28 27 27 28 28 26 26 24 24 26 30 37 38 40 62 144 137 126 132 156 167 185 188 180 179 177 179 181 180 174 171 169 168
136 107 66 38 25 15 6 7 15 21 22 22 24 27 30 29 27 27 28 29 28 27 26 25 21 23 20 20 22 33 47 149 171 173 191 192 192 199 196 194 197 194 193 194 196 194 198 200 205
147 137 122 54 16 3 357 1 12 15 18 20 22 26 28 27 25 26 27 29 27 27 25 24 22 22 19 17 21 26 21 20 180 210 212 212 209 208 197 198 203 202 204 206 208 211 214 218 220
172 180 148 32 351 345 341 348 2 9 15 17 18 23 24 23 25 25 27 27 24 24 26 27 25 23 21 20 20 15 16 347 249 246 228 228 228 223 209 208 206 209 212 216 222 225 227 228 228
193 198 203 217 314 326 333 340 357 3 5 16 16 15 17 18 20 23 23 23 22 21 24 25 26 26 23 21 19 14 6 338 288 262 248 239 235 232 223 222 223 224 228 232 237 238 239 240 240
203 213 220 245 276 307 318 331 346 351 353 1 9 12 14 14 17 19 20 20 21 19 19 20 22 22 21 19 17 14 11 352 328 286 256 245 238 238 241 233 237 239 240 243 245 244 246 245 247
212 212 219 236 258 283 300 315 333 338 346 358 3 5 11 13 14 17 18 18 18 17 17 17 20 20 18 17 14 11 6 351 330 293 264 248 243 245 248 243 245 249 248 250 251 250 249 249 250
216 216 217 230 245 266 288 308 322 329 344 351 357 1 5 10 12 13 15 16 15 16 16 16 17 17 16 15 14 11 4 350 335 305 279 264 256 252 254 255 256 259 258 258 258 255 252 252 254
207 204 211 227 243 261 279 293 309 324 337 341 350 1 3 6 9 10 12 13 14 15 15 13 15 14 14 13 9 3 358 350 337 325 303 282 273 269 264 262 265 265 263 261 261 259 258 259 259
209 206 211 223 236 257 271 279 294 314 327 337 349 358 1 360 3 5 9 14 13 13 15 14 14 13 12 11 6 359 349 343 335 319 306 294 284 277 272 274 277 273 266 264 263 261 260 263 261
218 217 217 226 237 252 262 270 282 305 316 333 341 351 354 357 2 2 7 10 10 11 13 13 11 9 9 7 4 359 348 339 331 322 311 299 294 287 278 278 281 279 270 264 264 264 264 264 263
217 219 220 230 235 245 256 261 276 300 320 328 331 345 352 353 356 358 2 7 5 6 7 9 9 7 6 4 2 358 351 338 326 319 313 307 302 299 290 284 281 283 277 269 266 264 264 265 266
214 220 224 231 237 246 255 263 274 295 318 331 332 339 346 347 348 350 355 360 359 359 360 3 5 5 2 1 358 353 350 345 332 322 316 310 304 298 296 295 288 285 281 275 271 269 268 269 270
218 221 224 230 238 247 253 259 266 282 301 320 327 330 333 334 339 346 348 351 353 353 354 356 358 359 358 358 356 351 348 344 338 330 319 312 306 300 294 292 289 288 286 281 278 278 276 275 276
220 225 228 233 238 246 251 258 266 279 293 307 317 321 324 327 333 338 340 344 348 348 350 352 353 354 354 355 355 352 350 345 339 331 321 313 308 302 297 296 294 289 289 289 283 280 279 277 276
Height
5919 5918 5917 5917 5915 5913 5911 5910 5908 5907 5905 5903 5902 5901 5900 5899 5899 5900 5897 5894 5894 5893 5893 5892 5892 5892 5892 5892 5892 5891 5891 5891 5891 5890 5890 5889 5889 5889 5889 5889 5888 5888 5888 5888 5888 5888 5889 5889 5890
5921 5920 5920 5919 5916 5915 5913 5911 5910 5909 5907 5905 5904 5903 5902 5900 5899 5898 5896 5895 5894 5894 5894 5893 5893 5893 5893 5892 5892 5892 5892 5892 5891 5891 5890 5890 5890 5890 5890 5889 5889 5889 5889 5889 5889 5889 5890 5890 5890
5924 5923 5923 5920 5919 5917 5915 5913 5912 5910 5909 5907 5906 5905 5904 5902 5900 5898 5897 5896 5895 5895 5894 5894 5894 5893 5893 5893 5893 5893 5893 5892 5892 5892 5891 5891 5891 5890 5890 5890 5890 5890 5890 5890 5890 5890 5890 5890 5890
5927 5926 5924 5923 5921 5920 5917 5916 5914 5913 5911 5909 5908 5906 5905 5903 5901 5899 5898 5897 5896 5896 5895 5895 5895 5894 5894 5894 5894 5893 5893 5893 5893 5893 5892 5892 5892 5891 5891 5891 5891 5891 5891 5891 5891 5891 5891 5891 5891
5930 5927 5926 5925 5923 5922 5920 5918 5917 5915 5913 5911 5910 5908 5906 5904 5902 5900 5899 5898 5897 5897 5896 5896 5895 5895 5895 5894 5894 5894 5894 5894 5893 5893 5893 5893 5893 5892 5892 5892 5892 5892 5892 5892 5892 5892 5892 5892 5891
5932 5929 5929 5927 5926 5924 5922 5921 5920 5918 5916 5913 5911 5910 5907 5905 5903 5902 5900 5899 5898 5897 5897 5897 5896 5896 5895 5895 5895 5895 5895 5894 5894 5894 5894 5894 5894 5893 5893 5893 5893 5893 5893 5893 5893 5893 5893 5893 5892
5934 5932 5930 5929 5928 5927 5925 5923 5922 5920 5918 5915 5913 5911 5909 5907 5905 5902 5901 5899 5899 5898 5898 5897 5897 5896 5896 5896 5895 5895 5895 5895 5895 5895 5895 5895 5894 5894 5894 5894 5894 5894 5894 5893 5893 5894 5894 5894 5893
5935 5934 5933 5932 5931 5930 5928 5926 5924 5922 5920 5917 5914 5912 5910 5908 5905 5903 5902 5901 5899 5899 5898 5898 5897 5897 5896 5896 5896 5896 5896 5895 5895 5895 5895 5895 5895 5895 5895 5895 5895 5895 5894 5894 5894 5894 5894 5895 5894
5937 5938 5936 5935 5934 5932 5931 5929 5927 5924 5921 5918 5916 5914 5912 5909 5907 5905 5903 5902 5901 5899 5899 5898 5897 5897 5897 5896 5896 5896 5896 5896 5896 5896 5896 5896 5895 5895 5895 5895 5895 5895 5895 5895 5895 5895 5895 5896 5896
5940 5939 5938 5937 5937 5935 5933 5932 5929 5926 5923 5920 5918 5916 5913 5910 5908 5906 5905 5903 5902 5900 5899 5899 5898 5897 5897 5896 5896 5896 5896 5896 5896 5896 5896 5896 5896 5896 5896 5896 5896 5896 5896 5896 5896 5896 5897 5897 5897
5942 5941 5940 5939 5938 5937 5935 5933 5931 5928 5926 5923 5921 5918 5915 5913 5910 5908 5906 5904 5903 5902 5900 5899 5898 5897 5896 5896 5896 5896 5896 5896 5896 5896 5896 5896 5896 5896 5896 5897 5896 5897 5897 5897 5897 5897 5897 5898 5898
5944 5943 5942 5941 5939 5938 5937 5935 5933 5930 5928 5925 5923 5920 5917 5914 5912 5909 5907 5905 5904 5902 5901 5900 5898 5897 5896 5896 5896 5896 5896 5896 5896 5896 5896 5896 5896 5896 5896 5897 5897 5897 5897 5898 5898 5898 5898 5898 5899
5944 5944 5943 5942 5942 5940 5939 5937 5935 5932 5930 5927 5925 5922 5919 5916 5913 5911 5908 5906 5904 5903 5901 5900 5899 5897 5896 5896 5895 5895 5896 5896 5896 5896 5896 5896 5896 5897 5897 5897 5897 5898 5898 5898 5899 5899 5899 5899 5899
5945 5945 5945 5944 5944 5942 5941 5939 5937 5934 5932 5929 5927 5924 5921 5918 5915 5912 5909 5907 5905 5903 5901 5900 5898 5897 5896 5896 5896 5895 5896 5896 5896 5896 5896 5896 5896 5896 5897 5897 5897 5898 5898 5899 5899 5899 5900 5900 5900
5946 5946 5946 5946 5945 5944 5943 5941 5938 5936 5934 5931 5928 5926 5923 5920 5917 5914 5911 5908 5906 5904 5902 5900 5899 5897 5896 5896 5896 5896 5896 5896 5896 5896 5896 5896 5896 5896 5897 5897 5897 5898 5898 5899 5900 5900 5900 5900 5901
5948 5947 5947 5947 5946 5945 5945 5942 5940 5937 5935 5933 5930 5927 5924 5921 5918 5915 5912 5909 5907 5905 5903 5901 5899 5898 5897 5896 5896 5895 5895 5895 5896 5896 5896 5896 5896 5896 5897 5897 5897 5898 5899 5899 5899 5900 5900 5901 5901
5947 5947 5947 5947 5946 5946 5946 5943 5941 5938 5937 5934 5932 5929 5926 5923 5920 5917 5913 5910 5908 5906 5904 5901 5900 5898 5897 5896 5895 5895 5895 5895 5895 5896 5896 5896 5896 5896 5897 5897 5897 5898 5898 5899 5899 5900 5900 5900 5900
5947 5947 5947 5947 5947 5946 5946 5944 5942 5939 5937 5936 5933 5930 5928 5925 5922 5918 5915 5912 5910 5908 5905 5903 5901 5899 5898 5896 5896 5895 5895 5895 5895 5895 5895 5895 5896 5896 5896 5896 5897 5898 5898 5898 5899 5899 5899 5899 5899
5946 5947 5947 5947 5947 5946 5946 5944 5942 5940 5938 5936 5934 5932 5930 5927 5924 5920 5917 5914 5912 5909 5906 5904 5902 5900 5898 5897 5896 5895 5895 5895 5895 5895 5895 5895 5895 5895 5895 5896 5896 5897 5897 5897 5898 5898 5898 5898 5898
5946 5946 5946 5946 5947 5946 5945 5944 5942 5940 5938 5937 5935 5933 5930 5928 5925 5922 5919 5916 5913 5910 5908 5905 5903 5900 5899 5897 5896 5896 5895 5894 5894 5894 5894 5894 5894 5894 5894 5895 5895 5895 5896 5896 5896 5897 5897 5897 5897
5944 5944 5945 5946 5946 5945 5944 5944 5942 5941 5939 5936 5935 5933 5931 5928 5926 5923 5920 5917 5914 5911 5908 5905 5903 5901 5899 5898 5896 5895 5895 5894 5893 5893 5893 5893 5892 5893 5893 5893 5893 5894 5894 5894 5894 5895 5895 5895 5895
5943 5943 5944 5945 5945 5945 5944 5943 5942 5940 5939 5937 5935 5933 5931 5928 5926 5923 5921 5917 5914 5912 5909 5906 5904 5902 5900 5898 5896 5895 5894 5893 5893 5892 5892 5891 5891 5892 5891 5891 5892 5892 5892 5892 5892 5892 5892 5892 5892
5940 5941 5942 5943 5943 5944 5943 5943 5942 5940 5938 5937 5935 5933 5931 5929 5926 5924 5921 5918 5915 5912 5909 5907 5904 5902 5900 5898 5897 5895 5894 5893 5892 5892 5891 5890 5890 5890 5890 5890 5890 5890 5890 5890 5890 5889 5889 5890 5890
5938 5939 5941 5941 5941 5942 5942 5942 5941 5939 5938 5936 5935 5933 5930 5928 5926 5924 5921 5919 5916 5913 5910 5907 5905 5902 5900 5898 5897 5895 5894 5893 5892 5891 5890 5890 5889 5889 5888 5888 5888 5888 5887 5887 5887 5886 5886 5886 5886
5936 5937 5939 5939 5940 5940 5940 5939 5940 5938 5937 5936 5934 5932 5930 5928 5926 5924 5921 5919 5916 5913 5910 5907 5905 5902 5900 5898 5896 5894 5893 5892 5891 5890 5889 5888 5887 5887 5886 5886 5885 5885 5884 5884 5884 5883 5883 5883 5883
5933 5935 5937 5938 5938 5938 5938 5937 5937 5936 5935 5934 5933 5932 5929 5928 5926 5924 5922 5919 5916 5914 5911 5908 5905 5903 5900 5898 5896 5894 5892 5891 5890 5889 5888 5887 5886 5885 5884 5884 5883 5882 5881 5881 5881 5880 5880 5880 5880
5930 5931 5933 5934 5935 5935 5935 5935 5935 5934 5933 5932 5932 5930 5929 5927 5926 5924 5921 5919 5916 5914 5911 5908 5905 5903 5900 5897 5895 5893 5891 5889 5888 5887 5886 5885 5884 5883 5882 5881 5880 5879 5878 5877 5877 5877 5876 5876 5876
5927 5928 5930 5931 5932 5932 5931 5931 5933 5932 5931 5931 5930 5929 5928 5927 5925 5923 5921 5918 5916 5913 5910 5908 5905 5902 5899 5897 5894 5892 5890 5888 5887 5885 5884 5883 5882 5881 5880 5878 5877 5876 5875 5874 5873 5873 5872 5872 5872
5923 5925 5926 5927 5928 5929 5929 5931 5930 5930 5930 5929 5929 5928 5927 5926 5924 5922 5920 5917 5914 5912 5909 5907 5904 5901 5899 5896 5894 5891 5889 5887 5885 5884 5882 5881 5879 5878 5877 5875 5874 5873 5872 5871 5870 5869 5868 5868 5867
5918 5920 5922 5924 5925 5925 5926 5929 5927 5927 5927 5927 5927 5926 5924 5923 5923 5921 5919 5916 5913 5911 5908 5906 5903 5900 5898 5895 5893 5890 5888 5886 5884 5882 5880 5878 5877 5875 5873 5872 5871 5870 5869 5867 5866 5865 5864 5863 5863